星链-5820 (STARLINK-5820 )

导读 | 星芒AI

STARLINK-5820 是 SpaceX Starlink 项目中的一颗低轨通信卫星,属于第二代星链卫星群。该卫星旨在为全球用户提供高速、低延迟的互联网服务,尤其关注偏远和网络基础设施薄弱的地区。它搭载先进通信设备,支持宽带数据传输,并与其他星链卫星协同工作,构建高效的太空互联网网络。STARLINK-5820 的发射和运行有助于提升星链系统的覆盖范围和性能,推动全球互联网接入的普及与优化。

基本信息
目录编号:
55781
目录名称:
STARLINK-5820
国际标识:
2023-028AS
轨道中心:
EARTH
卫星名称:
星链-5820
卫星全名:
星链-5820 (STARLINK-5820 )
卫星状态:
在轨 (已飞行1024 天)
发射日期:
2023-03-03 UTC
国别 :
美国 (US)
星等 :
--
轨道信息
数据来源 国际轨道数据 AOE轨道数据
星历时间 2025-12-20T23:12:46+0800
1天前
查看轨道信息
2025-12-18T05:00:00+0800
3天前
查看轨道信息
半长轴 6950.026km 6950.17km
偏心率 0.0002542 0.0003021
轨道倾角 70.001° 70.001°
近地点辐角 259.930° 278.125°
升交点赤经 63.725° 70.681°
平近点角 100.157° 324.855°
近地点 570.122km 569.935km
远地点 573.656km 574.135km
周期 96.104分钟 96.107分钟
每日圈数 14.983841 14.983376
详细信息
固有亮度:
5
最大亮度:
2.5
卫星平台:
Starlink v1.5
覆盖范围:
全球
运营商:
太空探索技术公司
运营商所在国:
美国
制造商(研发单位):
太空探索技术公司
制造商所在国:
美国
使用方式:
暂无
卫星简介
星链(Starlink)计划是由太空探索技术公司(SpaceX)提出的一个巨型低轨卫星互联网星座项目,计划在2019年至2024年间在太空搭建由约1.2万颗卫星组成的“星链”网络,其中1584颗将部署在地球上空550千米处的近地轨道,并从2020年开始工作。该卫星仍在工作。
2D轨道图
3D轨道图
轨道高度分析图
轨道倾角分析图
轨道综合分析图
查看轨道综合分析图